,,PA_Meas_PMT16A,,PR_Meas_QMR101_102,,RH_Meas_QMH101,,SR_Meas_QMS101,,TA_Meas_QMH101,,GenWind,,GenWind,
time,status,PA,status,PR,status,RH,status,SR,status,TA,status,DirAvg,status,SpdAvg,
2015-05-23, 00:00:04,VALID,919.58,VALID,0,VALID,98.525,VALID,0,VALID,21.6534,VALID,100,VALID,0,
2015-05-23, 00:01:04,VALID,919.548,VALID,0,VALID,98.525,VALID,0,VALID,21.6518,VALID,82,VALID,0,
2015-05-23, 00:02:04,VALID,919.594,VALID,0,VALID,98.5174,VALID,0,VALID,21.6729,VALID,82,VALID,0,
2015-05-23, 00:03:04,VALID,919.572,VALID,0,VALID,98.5174,VALID,0,VALID,21.6729,VALID,83,VALID,0,
2015-05-23, 00:04:04,VALID,919.567,VALID,0,VALID,98.5403,VALID,0,VALID,21.6924,VALID,83,VALID,0,
2015-05-23, 00:05:04,VALID,919.586,VALID,0,VALID,98.5631,VALID,0,VALID,21.6713,VALID,83,VALID,0,
2015-05-23, 00:06:04,VALID,919.559,VALID,0,VALID,98.5784,VALID,0,VALID,21.6924,VALID,83,VALID,0,
2015-05-23, 00:07:04,VALID,919.542,VALID,0,VALID,98.5555,VALID,0,VALID,21.712,VALID,85,VALID,0,
2015-05-23, 00:08:04,VALID,919.534,VALID,0,VALID,98.5631,VALID,0,VALID,21.6908,VALID,85,VALID,0,
2015-05-23, 00:09:04,VALID,919.486,VALID,0,VALID,98.5784,VALID,0,VALID,21.6713,VALID,85,VALID,0,
2015-05-23, 00:10:04,VALID,919.488,VALID,0,VALID,98.5555,VALID,0,VALID,21.712,VALID,85,VALID,0,
2015-05-23, 00:11:04,VALID,919.445,VALID,0,VALID,98.5708,VALID,0,VALID,21.7315,VALID,85,VALID,0,
2015-05-23, 00:12:04,VALID,919.459,VALID,0,VALID,98.5708,VALID,0,VALID,21.751,VALID,85,VALID,0,
2015-05-23, 00:13:04,VALID,919.425,VALID,0,VALID,98.5936,VALID,0,VALID,21.7705,VALID,85,VALID,0,
2015-05-23, 00:14:04,VALID,919.423,VALID,0,VALID,98.586,VALID,0,VALID,21.79,VALID,85,VALID,0,
2015-05-23, 00:15:04,VALID,919.446,VALID,0,VALID,98.5784,VALID,0,VALID,21.8095,VALID,86,VALID,0,
2015-05-23, 00:16:04,VALID,919.46,VALID,0,VALID,98.586,VALID,0,VALID,21.79,VALID,85,VALID,0,
2015-05-23, 00:17:04,VALID,919.513,VALID,0,VALID,98.5784,VALID,0,VALID,21.79,VALID,85,VALID,0,
2015-05-23, 00:18:04,VALID,919.516,VALID,0,VALID,98.5555,VALID,0,VALID,21.7883,VALID,85,VALID,0,
2015-05-23, 00:19:04,VALID,919.514,VALID,0,VALID,98.5631,VALID,0,VALID,21.829,VALID,85,VALID,0,
2015-05-23, 00:20:04,VALID,919.5,VALID,0,VALID,98.5631,VALID,0,VALID,21.8079,VALID,86,VALID,0,
2015-05-23, 00:21:04,VALID,919.517,VALID,0,VALID,98.5784,VALID,0,VALID,21.8274,VALID,86,VALID,0,
2015-05-23, 00:22:04,VALID,919.521,VALID,0,VALID,98.5631,VALID,0,VALID,21.8681,VALID,85,VALID,0,
2015-05-23, 00:23:04,VALID,919.5,VALID,0,VALID,98.5403,VALID,0,VALID,21.8876,VALID,85,VALID,0,
2015-05-23, 00:24:04,VALID,919.499,VALID,0,VALID,98.5784,VALID,0,VALID,21.8859,VALID,85,VALID,0,
2015-05-23, 00:25:04,VALID,919.516,VALID,0,VALID,98.5936,VALID,0,VALID,21.9071,VALID,85,VALID,0,
2015-05-23, 00:26:04,VALID,919.474,VALID,0,VALID,98.5936,VALID,0,VALID,21.9071,VALID,85,VALID,0,
2015-05-23, 00:27:04,VALID,919.466,VALID,0,VALID,98.6165,VALID,0,VALID,21.8876,VALID,86,VALID,0,
2015-05-23, 00:28:04,VALID,919.433,VALID,0,VALID,98.5936,VALID,0,VALID,21.8485,VALID,91,VALID,0,
2015-05-23, 00:29:04,VALID,919.409,VALID,0,VALID,98.6013,VALID,0,VALID,21.8095,VALID,91,VALID,0,
2015-05-23, 00:30:04,VALID,919.403,VALID,0,VALID,98.6089,VALID,0,VALID,21.8095,VALID,91,VALID,0,
2015-05-23, 00:31:04,VALID,919.373,VALID,0,VALID,98.6089,VALID,0,VALID,21.829,VALID,91,VALID,0,
2015-05-23, 00:32:04,VALID,919.345,VALID,0,VALID,98.586,VALID,0,VALID,21.8274,VALID,91,VALID,0,
2015-05-23, 00:33:04,VALID,919.327,VALID,0,VALID,98.586,VALID,0,VALID,21.829,VALID,91,VALID,0,
2015-05-23, 00:34:04,VALID,919.343,VALID,0,VALID,98.586,VALID,0,VALID,21.8079,VALID,91,VALID,0,
2015-05-23, 00:35:04,VALID,919.325,VALID,0,VALID,98.5784,VALID,0,VALID,21.7493,VALID,91,VALID,0,
2015-05-23, 00:36:04,VALID,919.338,VALID,0,VALID,98.5936,VALID,0,VALID,21.7705,VALID,91,VALID,0,
2015-05-23, 00:37:04,VALID,919.358,VALID,0,VALID,98.5936,VALID,0,VALID,21.7493,VALID,91,VALID,0,
2015-05-23, 00:38:04,VALID,919.401,VALID,0,VALID,98.5784,VALID,0,VALID,21.751,VALID,91,VALID,0,
2015-05-23, 00:39:04,VALID,919.423,VALID,0,VALID,98.6013,VALID,0,VALID,21.7315,VALID,91,VALID,0,
2015-05-23, 00:40:04,VALID,919.464,VALID,0,VALID,98.5708,VALID,0,VALID,21.7298,VALID,91,VALID,0,
2015-05-23, 00:41:05,VALID,919.481,VALID,0,VALID,98.5784,VALID,0,VALID,21.751,VALID,91,VALID,0,
2015-05-23, 00:42:05,VALID,919.487,VALID,0,VALID,98.6013,VALID,0,VALID,21.6924,VALID,81,VALID,0,
2015-05-23, 00:43:05,VALID,919.497,VALID,0,VALID,98.5936,VALID,0,VALID,21.6729,VALID,81,VALID,0,
2015-05-23, 00:44:05,VALID,919.463,VALID,0,VALID,98.586,VALID,0,VALID,21.6534,VALID,81,VALID,0,
2015-05-23, 00:45:05,VALID,919.465,VALID,0,VALID,98.586,VALID,0,VALID,21.6339,VALID,81,VALID,0,
2015-05-23, 07:22:04,VALID,918.621,VALID,0,VALID,98.3954,VALID,53.1834,VALID,20.5219,VALID,150,VALID,0,
2015-05-23, 07:23:04,VALID,918.62,VALID,0,VALID,98.3726,VALID,52.109,VALID,20.5024,VALID,161,VALID,0,
2015-05-23, 07:24:04,VALID,918.573,VALID,0,VALID,98.3192,VALID,51.7866,VALID,20.4423,VALID,138,VALID,0,
2015-05-23, 07:25:04,VALID,918.57,VALID,0,VALID,98.3116,VALID,52.2164,VALID,20.4634,VALID,139,VALID,0,
2015-05-23, 07:26:04,VALID,918.549,VALID,0,VALID,98.2658,VALID,53.6131,VALID,20.4228,VALID,133,VALID,0,
2015-05-23, 07:27:04,VALID,918.559,VALID,0,VALID,98.2506,VALID,55.9768,VALID,20.4439,VALID,131,VALID,0,
2015-05-23, 07:28:04,VALID,918.579,VALID,0,VALID,98.2506,VALID,58.8778,VALID,20.4244,VALID,121,VALID,0,
2015-05-23, 07:29:04,VALID,918.573,VALID,0,VALID,98.2582,VALID,61.7787,VALID,20.4033,VALID,121,VALID,0,
2015-05-23, 07:30:04,VALID,918.605,VALID,0,VALID,98.2735,VALID,64.1424,VALID,20.4228,VALID,129,VALID,0,
2015-05-23, 07:31:04,VALID,918.556,VALID,0,VALID,98.2811,VALID,65.8614,VALID,20.4228,VALID,130,VALID,0,
2015-05-23, 07:32:04,VALID,918.594,VALID,0,VALID,98.2887,VALID,67.0433,VALID,20.4634,VALID,135,VALID,0,
2015-05-23, 07:33:04,VALID,918.605,VALID,0,VALID,98.2963,VALID,68.0102,VALID,20.4829,VALID,141,VALID,0.655469,
2015-05-23, 07:34:04,VALID,918.604,VALID,0,VALID,98.2963,VALID,69.407,VALID,20.5024,VALID,139,VALID,0.98125,
2015-05-23, 07:35:04,VALID,918.641,VALID,0,VALID,98.2811,VALID,71.6632,VALID,20.5414,VALID,140,VALID,1.12891,
2015-05-23, 07:36:04,VALID,918.661,VALID,0,VALID,98.2125,VALID,74.6716,VALID,20.5999,VALID,136,VALID,0.911328,
2015-05-23, 07:37:04,VALID,918.706,VALID,0,VALID,98.1667,VALID,78.1097,VALID,20.639,VALID,135,VALID,1.45938,
2015-05-23, 07:38:04,VALID,918.706,VALID,0,VALID,98.0981,VALID,82.1925,VALID,20.6569,VALID,138,VALID,1.71719,
2015-05-23, 07:39:04,VALID,918.745,VALID,0,VALID,98.0066,VALID,85.8455,VALID,20.717,VALID,134,VALID,1.52969,
2015-05-23, 07:40:04,VALID,918.741,VALID,0,VALID,97.8694,VALID,88.7464,VALID,20.756,VALID,120,VALID,1.41914,
2015-05-23, 07:41:04,VALID,918.753,VALID,0,VALID,97.7093,VALID,90.358,VALID,20.7739,VALID,120,VALID,1.17188,
2015-05-23, 07:42:04,VALID,918.767,VALID,0,VALID,97.5569,VALID,91.0027,VALID,20.8145,VALID,120,VALID,1.58477,
2015-05-23, 07:43:04,VALID,918.74,VALID,0,VALID,97.4044,VALID,91.325,VALID,20.8129,VALID,129,VALID,0.941797,
2015-05-23, 07:44:04,VALID,918.696,VALID,0,VALID,97.29,VALID,91.5399,VALID,20.873,VALID,124,VALID,1.31445,
2015-05-23, 07:45:04,VALID,918.683,VALID,0,VALID,97.1528,VALID,91.9696,VALID,20.8925,VALID,122,VALID,1.05977,
2015-05-23, 07:46:04,VALID,918.664,VALID,0,VALID,97.0766,VALID,93.044,VALID,20.912,VALID,129,VALID,0.850391,
2015-05-23, 07:47:04,VALID,918.674,VALID,0,VALID,96.8936,VALID,94.011,VALID,20.9105,VALID,114,VALID,1.57969,
2015-05-23, 07:48:04,VALID,918.629,VALID,0,VALID,96.8631,VALID,94.2259,VALID,20.9495,VALID,117,VALID,0.797656,
2015-05-23, 07:49:04,VALID,918.598,VALID,0,VALID,96.8479,VALID,93.4738,VALID,20.969,VALID,118,VALID,1.52773,
2015-05-23, 07:50:04,VALID,918.626,VALID,0,VALID,96.825,VALID,92.1845,VALID,20.9885,VALID,131,VALID,1.37969,
2015-05-23, 07:51:04,VALID,918.603,VALID,0,VALID,96.8021,VALID,91.1101,VALID,21.008,VALID,139,VALID,1.01602,
2015-05-23, 07:52:04,VALID,918.596,VALID,0,VALID,96.6954,VALID,90.1431,VALID,20.9901,VALID,137,VALID,1.36211,
2015-05-23, 07:53:04,VALID,918.621,VALID,0,VALID,96.6497,VALID,90.0357,VALID,20.9901,VALID,133,VALID,1.60117,
2015-05-23, 07:54:04,VALID,918.599,VALID,0,VALID,96.5811,VALID,90.8952,VALID,20.9901,VALID,137,VALID,1.53516,
2015-05-23, 07:55:04,VALID,918.631,VALID,0,VALID,96.642,VALID,92.3994,VALID,21.0096,VALID,133,VALID,1.08906,
2015-05-23, 07:56:04,VALID,918.603,VALID,0,VALID,96.6649,VALID,94.5482,VALID,21.0096,VALID,132,VALID,1.41016,
2015-05-23, 07:57:04,VALID,918.632,VALID,0,VALID,96.5734,VALID,98.0938,VALID,21.0096,VALID,122,VALID,0.808594,
2015-05-23, 07:58:04,VALID,918.613,VALID,0,VALID,96.6115,VALID,106.689,VALID,21.0502,VALID,139,VALID,0,
2015-05-23, 07:59:04,VALID,918.641,VALID,0,VALID,96.6039,VALID,119.26,VALID,21.0876,VALID,143,VALID,0,
2015-05-23, 08:00:04,VALID,918.641,VALID,0,VALID,96.5734,VALID,141.393,VALID,21.1071,VALID,146,VALID,0,
2015-05-23, 08:01:04,VALID,918.601,VALID,0,VALID,96.5048,VALID,170.724,VALID,21.1657,VALID,154,VALID,0,
2015-05-23, 08:02:04,VALID,918.603,VALID,0,VALID,96.2151,VALID,163.203,VALID,21.2242,VALID,142,VALID,0,
2015-05-23, 08:03:04,VALID,918.628,VALID,0,VALID,96.0017,VALID,160.195,VALID,21.3234,VALID,158,VALID,0,
2015-05-23, 08:04:04,VALID,918.638,VALID,0,VALID,95.6967,VALID,144.831,VALID,21.3396,VALID,152,VALID,0,
2015-05-23, 08:05:04,VALID,918.617,VALID,0,VALID,95.468,VALID,152.674,VALID,21.4372,VALID,152,VALID,0,
2015-05-23, 08:06:04,VALID,918.645,VALID,0,VALID,95.2393,VALID,170.294,VALID,21.5152,VALID,176,VALID,0,
2015-05-23, 08:07:04,VALID,918.64,VALID,0,VALID,94.7362,VALID,172.55,VALID,21.5347,VALID,140,VALID,0,
2015-05-23, 08:08:04,VALID,918.608,VALID,0,VALID,94.4617,VALID,183.724,VALID,21.5932,VALID,139,VALID,0,
2015-05-23, 08:09:04,VALID,918.636,VALID,0,VALID,94.5532,VALID,190.493,VALID,21.6323,VALID,130,VALID,0,
2015-05-23, 08:10:04,VALID,918.641,VALID,0,VALID,94.4922,VALID,204.783,VALID,21.6729,VALID,108,VALID,0,
2015-05-23, 08:11:04,VALID,918.637,VALID,0,VALID,94.7362,VALID,203.064,VALID,21.7298,VALID,96,VALID,0,
2015-05-23, 08:12:04,VALID,918.614,VALID,0,VALID,94.6752,VALID,211.014,VALID,21.8079,VALID,100,VALID,0,
2015-05-23, 08:13:04,VALID,918.648,VALID,0,VALID,94.6218,VALID,217.031,VALID,21.8274,VALID,96,VALID,0,
2015-05-23, 08:14:04,VALID,918.675,VALID,0,VALID,93.9586,VALID,217.461,VALID,21.8859,VALID,114,VALID,0,
2015-05-23, 08:15:04,VALID,918.673,VALID,0,VALID,94.0196,VALID,215.097,VALID,21.9444,VALID,114,VALID,0,
2015-05-23, 08:16:04,VALID,918.685,VALID,0,VALID,93.6689,VALID,211.122,VALID,21.9835,VALID,141,VALID,0,
2015-05-23, 08:17:04,VALID,918.674,VALID,0,VALID,92.4644,VALID,209.94,VALID,21.964,VALID,146,VALID,0,
2015-05-23, 08:18:04,VALID,918.711,VALID,0,VALID,90.772,VALID,205.642,VALID,21.9818,VALID,138,VALID,0,
2015-05-23, 08:19:04,VALID,918.74,VALID,0,VALID,90.6958,VALID,235.941,VALID,22.0437,VALID,122,VALID,0,
2015-05-23, 08:20:04,VALID,918.734,VALID,0,VALID,93.2572,VALID,230.998,VALID,22.1217,VALID,147,VALID,0,
2015-05-23, 08:21:04,VALID,918.768,VALID,0,VALID,90.2917,VALID,319.1,VALID,22.1201,VALID,140,VALID,1.49492,
2015-05-23, 08:22:04,VALID,918.775,VALID,0,VALID,90.772,VALID,352.192,VALID,22.2193,VALID,138,VALID,0.795313,
2015-05-23, 08:23:04,VALID,918.774,VALID,0,VALID,90.4137,VALID,194.898,VALID,22.2957,VALID,147,VALID,1.02305,
2015-05-23, 08:24:04,VALID,918.782,VALID,0,VALID,88.9576,VALID,180.179,VALID,22.2957,VALID,141,VALID,0,
2015-05-23, 08:25:04,VALID,918.773,VALID,0,VALID,89.4379,VALID,169.435,VALID,22.2567,VALID,117,VALID,0.0996094,
2015-05-23, 08:26:04,VALID,918.745,VALID,0,VALID,90.4976,VALID,161.591,VALID,22.2567,VALID,159,VALID,0,
2015-05-23, 08:27:04,VALID,918.733,VALID,0,VALID,90.772,VALID,156.972,VALID,22.2957,VALID,161,VALID,0,
2015-05-23, 08:28:04,VALID,918.733,VALID,0,VALID,90.3832,VALID,155.038,VALID,22.2762,VALID,154,VALID,0.0289063,
2015-05-23, 08:29:04,VALID,918.705,VALID,0,VALID,90.0173,VALID,153.856,VALID,22.2354,VALID,135,VALID,0.0597656,
2015-05-23, 08:30:04,VALID,918.732,VALID,0,VALID,89.4074,VALID,153.104,VALID,22.2176,VALID,169,VALID,0.0726563,
2015-05-23, 08:31:04,VALID,918.719,VALID,0,VALID,88.9119,VALID,151.814,VALID,22.1981,VALID,167,VALID,0.550781,
2015-05-23, 08:32:04,VALID,918.734,VALID,0,VALID,89.0567,VALID,148.376,VALID,22.1786,VALID,165,VALID,1.18203,
2015-05-23, 08:33:04,VALID,918.758,VALID,0,VALID,89.5599,VALID,142.897,VALID,22.1396,VALID,177,VALID,0,
2015-05-23, 08:34:04,VALID,918.731,VALID,0,VALID,88.607,VALID,141.607,VALID,22.1591,VALID,196,VALID,0.979297,
2015-05-23, 08:35:04,VALID,918.757,VALID,0,VALID,88.6222,VALID,144.293,VALID,22.1769,VALID,182,VALID,0.00507812,
2015-05-23, 08:36:04,VALID,918.762,VALID,0,VALID,88.2563,VALID,160.517,VALID,22.2176,VALID,189,VALID,0,
2015-05-23, 08:37:04,VALID,918.756,VALID,0,VALID,88.485,VALID,185.766,VALID,22.255,VALID,150,VALID,0,
2015-05-23, 08:38:04,VALID,918.752,VALID,0,VALID,88.3859,VALID,165.352,VALID,22.3152,VALID,174,VALID,0,
2015-05-23, 08:39:04,VALID,918.747,VALID,0,VALID,88.0733,VALID,157.724,VALID,22.3525,VALID,189,VALID,0,
2015-05-23, 08:40:04,VALID,918.787,VALID,0,VALID,87.8751,VALID,159.12,VALID,22.4518,VALID,184,VALID,0,
2015-05-23, 08:41:04,VALID,918.789,VALID,0,VALID,87.7531,VALID,163.525,VALID,22.4696,VALID,177,VALID,0.165625,
2015-05-23, 08:42:04,VALID,918.816,VALID,0,VALID,87.1128,VALID,174.484,VALID,22.5103,VALID,195,VALID,0.00585938,
2015-05-23, 08:43:04,VALID,918.816,VALID,0,VALID,86.2056,VALID,219.717,VALID,22.5086,VALID,201,VALID,0.201953,
2015-05-23, 08:44:04,VALID,918.884,VALID,0,VALID,85.8168,VALID,214.56,VALID,22.5867,VALID,188,VALID,0.0851562,
2015-05-23, 08:45:04,VALID,918.909,VALID,0,VALID,86.7164,VALID,181.253,VALID,22.7038,VALID,191,VALID,0,
2015-05-23, 08:46:04,VALID,918.919,VALID,0,VALID,86.1903,VALID,178.997,VALID,22.7818,VALID,205,VALID,0,
2015-05-23, 08:47:04,VALID,918.921,VALID,0,VALID,86.4038,VALID,201.56,VALID,22.8404,VALID,183,VALID,0.00234375,
2015-05-23, 08:48:04,VALID,918.959,VALID,0,VALID,86.9832,VALID,166.749,VALID,22.8794,VALID,184,VALID,0.415234,
2015-05-23, 08:49:04,VALID,918.964,VALID,0,VALID,87.3796,VALID,163.633,VALID,22.8989,VALID,179,VALID,0,
2015-05-23, 08:50:04,VALID,918.973,VALID,0,VALID,87.2271,VALID,196.51,VALID,22.938,VALID,210,VALID,0,
2015-05-23, 08:51:04,VALID,919.015,VALID,0,VALID,85.2222,VALID,175.344,VALID,22.977,VALID,186,VALID,0,
2015-05-23, 08:52:04,VALID,919.018,VALID,0,VALID,84.7571,VALID,171.584,VALID,22.9965,VALID,183,VALID,0,
2015-05-23, 08:53:04,VALID,919,VALID,0,VALID,84.5742,VALID,159.443,VALID,23.016,VALID,183,VALID,0,
2015-05-23, 08:54:04,VALID,919.004,VALID,0,VALID,84.0482,VALID,161.162,VALID,23.0551,VALID,166,VALID,0,
2015-05-23, 08:55:04,VALID,919.042,VALID,0,VALID,82.31,VALID,158.691,VALID,23.0551,VALID,155,VALID,0,
2015-05-23, 08:56:04,VALID,919.102,VALID,0,VALID,82.4167,VALID,160.302,VALID,23.0941,VALID,204,VALID,0,
2015-05-23, 08:57:04,VALID,919.124,VALID,0,VALID,83.08,VALID,163.74,VALID,23.1527,VALID,200,VALID,0,
2015-05-23, 08:58:04,VALID,919.167,VALID,0,VALID,83.3087,VALID,168.468,VALID,23.1917,VALID,200,VALID,0,
2015-05-23, 08:59:04,VALID,919.189,VALID,0,VALID,86.4267,VALID,172.443,VALID,23.2502,VALID,201,VALID,0,
2015-05-23, 09:00:04,VALID,919.202,VALID,0,VALID,86.4419,VALID,170.724,VALID,23.1917,VALID,200,VALID,0,
2015-05-23, 09:01:04,VALID,919.203,VALID,0,VALID,86.9146,VALID,169.22,VALID,23.2325,VALID,200,VALID,0,
2015-05-23, 09:02:04,VALID,919.212,VALID,0,VALID,86.1751,VALID,169.22,VALID,23.1917,VALID,200,VALID,0,
2015-05-23, 09:03:04,VALID,919.176,VALID,0,VALID,84.1015,VALID,171.798,VALID,23.1331,VALID,157,VALID,0,
2015-05-23, 09:04:04,VALID,919.178,VALID,0,VALID,84.5894,VALID,175.989,VALID,23.1136,VALID,200,VALID,0.06875,
2015-05-23, 09:05:04,VALID,919.199,VALID,0,VALID,85.55,VALID,187.592,VALID,23.0941,VALID,106,VALID,0,
2015-05-23, 09:06:04,VALID,919.2,VALID,0,VALID,85.672,VALID,203.923,VALID,22.9965,VALID,110,VALID,0.115234,
2015-05-23, 09:07:04,VALID,919.23,VALID,0,VALID,86.5868,VALID,262.801,VALID,22.9397,VALID,118,VALID,0,
2015-05-23, 09:08:04,VALID,919.262,VALID,0,VALID,86.5868,VALID,535.916,VALID,22.9592,VALID,128,VALID,0,
2015-05-23, 09:09:04,VALID,919.292,VALID,0,VALID,86.3199,VALID,333.605,VALID,23.0959,VALID,169,VALID,0,
2015-05-23, 09:10:04,VALID,919.317,VALID,0,VALID,85.3441,VALID,351.225,VALID,23.252,VALID,171,VALID,0,
2015-05-23, 09:11:04,VALID,919.34,VALID,0,VALID,84.1168,VALID,223.155,VALID,23.3283,VALID,168,VALID,0,
2015-05-23, 09:12:04,VALID,919.346,VALID,0,VALID,84.1244,VALID,215.849,VALID,23.4064,VALID,165,VALID,0.401563,
2015-05-23, 09:13:04,VALID,919.341,VALID,0,VALID,83.9567,VALID,211.659,VALID,23.4082,VALID,169,VALID,0,
2015-05-23, 09:14:04,VALID,919.335,VALID,0,VALID,84.4522,VALID,215.742,VALID,23.4082,VALID,163,VALID,0,
2015-05-23, 09:15:04,VALID,919.356,VALID,0,VALID,85.245,VALID,259.578,VALID,23.4064,VALID,152,VALID,0,
2015-05-23, 09:16:04,VALID,919.356,VALID,0,VALID,84.4141,VALID,471.129,VALID,23.3869,VALID,151,VALID,0,
2015-05-23, 09:17:04,VALID,919.372,VALID,0,VALID,84.6809,VALID,435.889,VALID,23.4845,VALID,126,VALID,0,
2015-05-23, 09:18:04,VALID,919.385,VALID,0,VALID,84.2616,VALID,526.784,VALID,23.6034,VALID,145,VALID,0,
2015-05-23, 09:19:04,VALID,919.389,VALID,0,VALID,84.3988,VALID,511.205,VALID,23.6211,VALID,120,VALID,0.0164062,
2015-05-23, 09:20:04,VALID,919.462,VALID,0,VALID,83.8118,VALID,487.89,VALID,23.6797,VALID,145,VALID,1.14258,
2015-05-23, 09:21:04,VALID,919.484,VALID,0,VALID,84.8791,VALID,421.062,VALID,23.7382,VALID,141,VALID,0,
2015-05-23, 09:22:04,VALID,919.491,VALID,0,VALID,85.1612,VALID,447.278,VALID,23.8163,VALID,143,VALID,1.20547,
2015-05-23, 09:23:04,VALID,919.508,VALID,0,VALID,83.5679,VALID,477.039,VALID,23.8944,VALID,169,VALID,0,
2015-05-23, 09:24:04,VALID,919.497,VALID,0,VALID,83.8195,VALID,528.181,VALID,24.0115,VALID,159,VALID,0.4625,
2015-05-23, 09:25:04,VALID,919.489,VALID,0,VALID,83.2934,VALID,483.593,VALID,24.0115,VALID,151,VALID,0.1875,
2015-05-23, 09:26:04,VALID,919.491,VALID,0,VALID,82.7522,VALID,392.483,VALID,24.0311,VALID,141,VALID,0.158984,
2015-05-23, 09:27:04,VALID,919.449,VALID,0,VALID,83.8042,VALID,404.623,VALID,24.0896,VALID,139,VALID,0.389062,
2015-05-23, 09:28:04,VALID,919.427,VALID,0,VALID,83.9262,VALID,411.822,VALID,24.2458,VALID,159,VALID,0,
2015-05-23, 09:29:04,VALID,919.481,VALID,0,VALID,82.0432,VALID,431.484,VALID,24.363,VALID,182,VALID,0,
2015-05-23, 09:30:04,VALID,919.491,VALID,0,VALID,81.3876,VALID,487.675,VALID,24.5173,VALID,172,VALID,0.00820312,
2015-05-23, 09:31:04,VALID,919.476,VALID,0,VALID,80.8997,VALID,484.345,VALID,24.4783,VALID,182,VALID,0.666406,
2015-05-23, 09:32:04,VALID,919.502,VALID,0,VALID,81.6087,VALID,506.37,VALID,24.4978,VALID,153,VALID,0.0820313,
2015-05-23, 09:33:04,VALID,919.541,VALID,0,VALID,80.9149,VALID,494.874,VALID,24.5759,VALID,171,VALID,0.251172,
2015-05-23, 09:34:04,VALID,919.552,VALID,0,VALID,81.3952,VALID,527.536,VALID,24.6949,VALID,177,VALID,0.00585938,
2015-05-23, 09:35:04,VALID,919.565,VALID,0,VALID,79.9239,VALID,568.901,VALID,24.7516,VALID,170,VALID,0.896875,
2015-05-23, 09:36:04,VALID,919.551,VALID,0,VALID,78.2467,VALID,581.579,VALID,24.8102,VALID,152,VALID,0.00117188,
2015-05-23, 09:37:04,VALID,919.578,VALID,0,VALID,79.5122,VALID,610.695,VALID,24.9097,VALID,136,VALID,0.00195313,
2015-05-23, 09:38:04,VALID,919.551,VALID,0,VALID,77.4463,VALID,695.467,VALID,24.9097,VALID,128,VALID,1.09102,
2015-05-23, 09:39:04,VALID,919.559,VALID,0,VALID,80.2669,VALID,689.772,VALID,24.9097,VALID,138,VALID,0.192578,
2015-05-23, 09:40:04,VALID,919.581,VALID,0,VALID,79.1311,VALID,691.491,VALID,24.9859,VALID,174,VALID,0.508984,
2015-05-23, 09:41:04,VALID,919.532,VALID,0,VALID,78.971,VALID,598.662,VALID,25.1226,VALID,117,VALID,0.690234,
2015-05-23, 09:42:04,VALID,919.511,VALID,0,VALID,76.8593,VALID,582.116,VALID,25.2203,VALID,88,VALID,0.755859,
2015-05-23, 09:43:04,VALID,919.495,VALID,0,VALID,75.7081,VALID,525.924,VALID,25.398,VALID,91,VALID,0.0382813,
2015-05-23, 09:44:04,VALID,919.482,VALID,0,VALID,77.0041,VALID,443.947,VALID,25.3374,VALID,87,VALID,0.697656,
2015-05-23, 09:45:04,VALID,919.488,VALID,0,VALID,77.9342,VALID,422.029,VALID,25.4351,VALID,59,VALID,0.180469,
2015-05-23, 09:46:04,VALID,919.505,VALID,0,VALID,77.1185,VALID,424.178,VALID,25.5327,VALID,159,VALID,0,
2015-05-23, 09:47:04,VALID,919.519,VALID,0,VALID,77.1642,VALID,440.831,VALID,25.5132,VALID,105,VALID,0.233594,
2015-05-23, 09:48:04,VALID,919.526,VALID,0,VALID,74.374,VALID,453.187,VALID,25.5737,VALID,146,VALID,0,
2015-05-23, 09:49:04,VALID,919.536,VALID,0,VALID,74.2444,VALID,446.955,VALID,25.5327,VALID,155,VALID,0.0542969,
2015-05-23, 09:50:04,VALID,919.536,VALID,0,VALID,75.9673,VALID,439.327,VALID,25.4351,VALID,142,VALID,0,
2015-05-23, 09:51:04,VALID,919.534,VALID,0,VALID,76.5848,VALID,431.054,VALID,25.4351,VALID,130,VALID,1.13359,
2015-05-23, 09:52:04,VALID,919.499,VALID,0,VALID,72.857,VALID,427.723,VALID,25.3746,VALID,147,VALID,0.890234,
2015-05-23, 09:53:04,VALID,919.473,VALID,0,VALID,74.2521,VALID,432.773,VALID,25.3765,VALID,130,VALID,0,
2015-05-23, 09:54:04,VALID,919.483,VALID,0,VALID,76.3714,VALID,416.979,VALID,25.357,VALID,96,VALID,0,
2015-05-23, 09:55:04,VALID,919.461,VALID,0,VALID,75.9978,VALID,400.863,VALID,25.2984,VALID,121,VALID,0.826953,
2015-05-23, 09:56:04,VALID,919.419,VALID,0,VALID,76.2723,VALID,385.284,VALID,25.2398,VALID,49,VALID,0.297266,
2015-05-23, 09:57:04,VALID,919.416,VALID,0,VALID,76.7754,VALID,375.829,VALID,25.1988,VALID,78,VALID,1.35781,
2015-05-23, 09:58:04,VALID,919.432,VALID,0,VALID,78.384,VALID,365.837,VALID,25.1207,VALID,82,VALID,0,
2015-05-23, 09:59:04,VALID,919.455,VALID,0,VALID,78.6737,VALID,358.961,VALID,25.1598,VALID,68,VALID,0.00078125,
2015-05-23, 10:00:04,VALID,919.427,VALID,0,VALID,78.5517,VALID,357.134,VALID,25.2183,VALID,88,VALID,0.00585938,
2015-05-23, 10:01:04,VALID,919.435,VALID,0,VALID,78.8337,VALID,358.424,VALID,25.316,VALID,89,VALID,0,
2015-05-23, 10:02:04,VALID,919.418,VALID,0,VALID,76.379,VALID,362.292,VALID,25.2965,VALID,94,VALID,0,
2015-05-23, 10:03:04,VALID,919.398,VALID,0,VALID,76.7297,VALID,364.978,VALID,25.2574,VALID,94,VALID,0,
2015-05-23, 10:04:04,VALID,919.442,VALID,0,VALID,77.1337,VALID,367.449,VALID,25.2183,VALID,60,VALID,0.239453,
2015-05-23, 10:05:04,VALID,919.403,VALID,0,VALID,77.8046,VALID,372.928,VALID,25.236,VALID,43,VALID,0.108984,
2015-05-23, 10:06:04,VALID,919.387,VALID,0,VALID,76.5467,VALID,381.309,VALID,25.1988,VALID,126,VALID,0.154297,
2015-05-23, 10:07:04,VALID,919.402,VALID,0,VALID,78.1476,VALID,384.102,VALID,25.1617,VALID,138,VALID,0.0644531,
2015-05-23, 10:08:04,VALID,919.356,VALID,0,VALID,75.3651,VALID,388.507,VALID,25.2398,VALID,167,VALID,0,
2015-05-23, 10:09:04,VALID,919.369,VALID,0,VALID,75.4337,VALID,393.342,VALID,25.3765,VALID,167,VALID,0,
2015-05-23, 10:10:04,VALID,919.381,VALID,0,VALID,73.4821,VALID,390.334,VALID,25.5327,VALID,167,VALID,0,
2015-05-23, 10:11:04,VALID,919.383,VALID,0,VALID,73.7032,VALID,394.739,VALID,25.5913,VALID,167,VALID,0,
2015-05-23, 10:12:04,VALID,919.365,VALID,0,VALID,74.2216,VALID,401.722,VALID,25.7261,VALID,167,VALID,0,
2015-05-23, 10:13:04,VALID,919.391,VALID,0,VALID,76.9889,VALID,389.689,VALID,25.9019,VALID,166,VALID,0,
2015-05-23, 10:14:04,VALID,919.376,VALID,0,VALID,75.5557,VALID,383.243,VALID,25.9995,VALID,87,VALID,0,
2015-05-23, 10:15:04,VALID,919.423,VALID,0,VALID,74.4579,VALID,374.862,VALID,25.8999,VALID,80,VALID,0,
2015-05-23, 10:16:04,VALID,919.405,VALID,0,VALID,73.5278,VALID,362.829,VALID,25.8823,VALID,80,VALID,0,
2015-05-23, 10:17:04,VALID,919.422,VALID,0,VALID,73.566,VALID,354.878,VALID,25.9214,VALID,81,VALID,0,
2015-05-23, 10:18:04,VALID,919.39,VALID,0,VALID,72.9561,VALID,352.407,VALID,26.021,VALID,81,VALID,0,
2015-05-23, 10:19:04,VALID,919.368,VALID,0,VALID,74.3969,VALID,353.481,VALID,26.019,VALID,80,VALID,0.18125,
2015-05-23, 10:20:04,VALID,919.389,VALID,0,VALID,74.3131,VALID,355.415,VALID,25.9214,VALID,23,VALID,0.510547,